ORBCOMM FM19

Last updated on Tue Sep 22 2026 00:03:23 GMT+0000 (Coordinated Universal Time)

1 25415U 98046C 26264.42632661 .00000512 00000+0 20740-3 0 9997 2 25415 44.9928 146.0431 0004210 59.6228 110.0670 14.39644856470649
UTC large
Height (km)
Speed (km/s)
/
Latitude / Longitude
Inclination (degrees)
Orbital Period (minutes)
Azimuth
Elevation
Range (km)
Doppler Factor

Next 0 passes for location: London (51.5072 / 0.1276)

No passes found over London.
ORBCOMM FM19